GW1942 Weather Reports


Display with metric or nautical units.
time (UTC)temp
F
wind
direction
speed
MPH
gust
MPH
rain 1hr
in
rain 24hr
in
rain mn
in
humidity
%
barometer
mb
20260507070005 55 82 2.0 5.0 0.01 0.03 0.01 82 1010.2
20260507064503 56 44 3.0 11.0 0.01 0.03 0.01 78 1009.8
20260507063100 55 107 5.0 7.0 0.00 0.02 0.00 81 1010.2
20260507061554 55 101 3.0 8.0 0.00 0.02 0.00 81 1010.3
20260507060051 56 81 2.0 6.0 0.02 0.02 0.00 81 1010.2
20260507054602 56 319 0.0 6.0 0.02 0.02 0.02 81 1010.6
20260507053052 57 104 2.0 4.0 0.02 0.02 0.02 77 1010.0
20260507051549 59 100 2.0 3.0 0.01 0.01 0.01 68 1009.9
20260507050048 61 18 1.0 8.0 0.00 0.00 0.00 57 1009.7
20260507044549 60 98 4.0 6.0 0.00 0.00 0.00 61 1009.4
20260507043048 61 84 0.0 2.0 0.00 0.00 0.00 62 1009.6
20260507041546 61 265 1.0 5.0 0.00 0.00 0.00 60 1009.3
20260507040057 61 78 3.0 0.0 0.00 0.00 0.00 61 1009.3
20260507034554 62 78 3.0 8.0 0.00 0.00 0.00 60 1009.2
20260507033045 63 233 0.0 5.0 0.00 0.00 0.00 58 1009.3
20260507031544 64 62 3.0 5.0 0.00 0.00 0.00 57 1009.1
20260507030043 63 161 1.0 6.0 0.00 0.00 0.00 59 1009.1
20260507024543 63 92 1.0 2.0 0.00 0.00 0.00 60 1009.0
20260507023042 66 75 0.0 2.0 0.00 0.00 0.00 56 1008.8
20260507021545 68 269 0.0 1.0 0.00 0.00 0.00 51 1008.7
20260507020043 68 95 0.0 2.0 0.00 0.00 0.00 52 1008.5
20260507014540 69 202 0.0 3.0 0.00 0.00 0.00 45 1008.6
20260507013040 70 193 0.0 6.0 0.00 0.00 0.00 45 1008.6
20260507011540 71 39 1.0 3.0 0.00 0.00 0.00 44 1008.6
20260507010036 71 27 0.0 4.0 0.00 0.00 0.00 42 1008.9
20260507004535 72 8 0.0 3.0 0.00 0.00 0.00 40 1009.0
20260507003035 73 232 0.0 0.0 0.00 0.00 0.00 38 1009.0
20260507001546 73 274 0.0 3.0 0.00 0.00 0.00 37 1009.1
20260507000031 73 287 1.0 4.0 0.00 0.00 0.00 34 1009.2
20260506234541 74 309 2.0 0.0 0.00 0.00 0.00 34 1009.2
20260506233033 75 298 0.0 9.0 0.00 0.00 0.00 33 1009.2
20260506231534 75 276 0.0 7.0 0.00 0.00 0.00 34 1009.3
20260506230027 76 175 2.0 5.0 0.00 0.00 0.00 32 1009.4
20260506224529 76 2 2.0 7.0 0.00 0.00 0.00 29 1009.4
20260506223024 75 269 1.0 7.0 0.00 0.00 0.00 30 1009.7
20260506221523 75 195 1.0 4.0 0.00 0.00 0.00 30 1009.7
20260506220022 76 204 0.0 4.0 0.00 0.00 0.00 31 1009.8
20260506214520 76 102 1.0 4.0 0.00 0.00 0.00 30 1010.0
20260506213021 76 32 0.0 3.0 0.00 0.00 0.00 29 1010.3
20260506211517 75 197 0.0 3.0 0.00 0.00 0.00 32 1010.4
20260506210012 73 66 0.0 4.0 0.00 0.00 0.00 33 1010.7
20260506204508 73 59 4.0 6.0 0.00 0.00 0.00 30 1010.9
20260506203006 72 53 0.0 4.0 0.00 0.00 0.00 31 1011.1
20260506201502 70 278 1.0 2.0 0.00 0.00 0.00 32 1011.5
20260506200058 68 269 0.0 3.0 0.00 0.00 0.00 33 1011.8
20260506194556 67 39 1.0 4.0 0.00 0.00 0.00 34 1012.2
20260506193054 68 46 1.0 4.0 0.00 0.00 0.00 32 1012.5
20260506191553 67 309 1.0 4.0 0.00 0.00 0.00 33 1012.8
20260506190050 66 282 0.0 3.0 0.00 0.00 0.00 37 1013.2
20260506184553 64 281 1.0 5.0 0.00 0.00 0.00 37 1013.5
20260506183039 62 271 0.0 4.0 0.00 0.00 0.00 38 1013.9
20260506181538 61 356 0.0 4.0 0.00 0.00 0.00 36 1014.0
20260506180035 59 31 1.0 5.0 0.00 0.00 0.00 38 1014.4
20260506174529 58 42 2.0 5.0 0.00 0.00 0.00 38 1014.6
20260506173032 57 323 0.0 4.0 0.00 0.00 0.00 40 1014.9
20260506171524 56 62 1.0 5.0 0.00 0.00 0.00 38 1015.3
20260506170022 55 331 1.0 8.0 0.00 0.00 0.00 41 1015.5
20260506164517 53 301 0.0 3.0 0.00 0.00 0.00 42 1015.7
20260506163031 52 327 2.0 5.0 0.00 0.00 0.00 46 1015.8
20260506161515 52 39 0.0 1.0 0.00 0.00 0.00 48 1015.9
20260506160010 50 301 0.0 4.0 0.00 0.00 0.00 49 1016.2
20260506154522 49 250 0.0 2.0 0.00 0.00 0.00 51 1016.4
20260506153003 48 57 0.0 4.0 0.00 0.00 0.00 53 1016.6
20260506151559 47 321 0.0 2.0 0.00 0.00 0.00 56 1016.7
20260506150056 45 52 0.0 1.0 0.00 0.00 0.00 57 1016.9
20260506144555 44 65 1.0 2.0 0.00 0.00 0.00 58 1017.1
20260506143052 43 63 0.0 1.0 0.00 0.00 0.00 61 1017.2
20260506141550 43 86 0.0 1.0 0.00 0.00 0.00 62 1017.3
20260506140048 41 127 0.0 1.0 0.00 0.00 0.00 67 1017.6
20260506134544 39 134 0.0 1.0 0.00 0.00 0.00 70 1017.5
20260506133047 37 101 0.0 0.0 0.00 0.00 0.00 77 1017.5
20260506131543 33 163 0.0 0.0 0.00 0.00 0.00 82 1017.4
20260506130042 29 163 0.0 0.0 0.00 0.00 0.00 87 1017.5
20260506124544 29 163 0.0 1.0 0.00 0.00 0.00 87 1017.4
20260506123041 29 152 0.0 0.0 0.00 0.00 0.00 87 1017.5
20260506121547 29 153 0.0 0.0 0.00 0.00 0.00 87 1017.4
20260506120040 29 153 0.0 0.0 0.00 0.00 0.00 84 1017.3
20260506114534 30 153 0.0 0.0 0.00 0.00 0.00 85 1017.3
20260506113033 31 148 0.0 1.0 0.00 0.00 0.00 82 1017.4
20260506111534 30 204 0.0 1.0 0.00 0.00 0.00 85 1017.5
20260506110029 30 117 0.0 1.0 0.00 0.00 0.00 83 1017.5
20260506104527 31 139 0.0 0.0 0.00 0.00 0.00 83 1017.3
20260506103026 31 139 0.0 0.0 0.00 0.00 0.00 82 1017.2
20260506101524 32 111 0.0 1.0 0.00 0.00 0.00 80 1017.1
20260506100021 33 136 0.0 0.0 0.00 0.00 0.00 78 1017.2
20260506094520 33 123 0.0 1.0 0.00 0.00 0.00 77 1017.2
20260506093018 35 219 0.0 2.0 0.00 0.00 0.00 73 1017.2
20260506091515 35 148 0.0 1.0 0.00 0.00 0.00 74 1017.3
20260506090013 36 113 0.0 2.0 0.00 0.00 0.00 71 1017.3
20260506084511 35 85 0.0 3.0 0.00 0.00 0.00 73 1017.3
20260506083015 36 143 0.0 2.0 0.00 0.00 0.00 71 1017.2
20260506081505 37 198 0.0 3.0 0.00 0.00 0.00 69 1017.2
20260506073101 39 219 1.0 4.0 0.00 0.00 0.00 64 1017.2
20260506071558 40 203 1.0 4.0 0.00 0.00 0.00 62 1017.0